Kremmling, CO

2:49 AM MST on November 15, 2019 (GMT -0700)
Kremmling

Weather History for K20V - September, 2019

Change the Weather History Date:

Tuesday, September 3, 2019

  Actual Average Record
Temperature  
Mean Temperature 62 °F -  
Max Temperature 88 °F - 95 °F (2017)
Min Temperature 35 °F - 28 °F (2006)
Degree Days  
Heating Degree Days 4    
Month to date heating degree days 8  
Cooling Degree Days 0    
Month to date cooling degree days 0  
Growing Degree Days 12 (Base 50)    
Moisture  
Dew Point 32 °F    
Average Humidity 41    
Maximum Humidity 87    
Minimum Humidity 11    
Precipitation  
Precipitation 0.00 in - 0.29 in (2003)
Snow  
Snow 0.00 in - - ()
Snow Depth 0.00 in    
Sea Level Pressure  
Sea Level Pressure 30.39 in    
Wind  
Wind Speed 2 mph ()    
Max Wind Speed 13 mph    
Max Gust Speed 18 mph    
Visibility 10.0 miles    
Events      
T = Trace of Precipitation, MM = Missing Value Source: Averaged Metar Reports

Daily Weather History Graph

Daily Weather History Graph

Search for Another Location

Airport or City:

Astronomy

Sep. 03, 2019 Rise Set
Actual Time 6:34 AM MDT 7:34 PM MDT
Civil Twilight 6:07 AM MDT 8:01 PM MDT
Nautical Twilight 5:34 AM MDT 8:34 PM MDT
Astronomical Twilight 4:59 AM MDT 9:08 PM MDT
Moon 11:31 AM MDT (9/3) 10:32 PM MDT (9/3)
Length of Visible Light 13h 54m
Length of Day
12h 59m
Waxing Crescent, 25% of the Moon is Illuminated
Sep 3
Waxing Crescent
Sep 5
First Quarter
Sep 13
Full
Sep 21
Last Quarter
Sep 28
New

Hourly Weather History & Observations

Time (MDT) Temp. Dew Point Humidity Pressure Visibility Wind Dir Wind Speed Gust Speed Precip Events Conditions
12:06 AM 48.2 °F 32.0 °F 54% 30.36 in 10.0 mi Calm Calm - N/A   Clear
12:30 AM 48.2 °F 32.0 °F 54% 30.37 in 10.0 mi North 3.5 mph - N/A   Clear
12:47 AM 46.4 °F 33.8 °F 62% 30.37 in 10.0 mi Calm Calm - N/A   Clear
1:06 AM 42.8 °F 32.0 °F 66% 30.37 in 10.0 mi Calm Calm - N/A   Clear
1:29 AM 42.8 °F 32.0 °F 66% 30.37 in 10.0 mi Calm Calm - N/A   Clear
1:47 AM 42.8 °F 26.6 °F 53% 30.38 in 10.0 mi Calm Calm - N/A   Clear
2:06 AM 41.0 °F 28.4 °F 61% 30.38 in 10.0 mi Calm Calm - N/A   Clear
2:29 AM 37.4 °F 28.4 °F 70% 30.39 in 10.0 mi Calm Calm - N/A   Clear
2:47 AM 41.0 °F 30.2 °F 65% 30.40 in 10.0 mi Calm Calm - N/A   Clear
3:06 AM 37.4 °F 30.2 °F 75% 30.40 in 10.0 mi Calm Calm - N/A   Clear
3:30 AM 37.4 °F 30.2 °F 75% 30.41 in 10.0 mi Calm Calm - N/A   Clear
3:48 AM 39.2 °F 30.2 °F 70% 30.41 in 10.0 mi Calm Calm - N/A   Clear
4:06 AM 37.4 °F 28.4 °F 70% 30.41 in 10.0 mi Calm Calm - N/A   Clear
4:30 AM 37.4 °F 30.2 °F 75% 30.42 in 10.0 mi Calm Calm - N/A   Clear
4:48 AM 37.4 °F 32.0 °F 81% 30.42 in 10.0 mi Calm Calm - N/A   Clear
5:06 AM 35.6 °F 26.6 °F 70% 30.43 in 10.0 mi Calm Calm - N/A   Clear
5:30 AM 35.6 °F 28.4 °F 75% 30.44 in 10.0 mi Calm Calm - N/A   Clear
5:48 AM 35.6 °F 30.2 °F 81% 30.44 in 10.0 mi Calm Calm - N/A   Clear
6:09 AM 35.6 °F 32.0 °F 87% 30.45 in 10.0 mi Calm Calm - N/A   Clear
6:45 AM 35.6 °F 28.4 °F 75% 30.47 in 10.0 mi Calm Calm - N/A   Clear
7:06 AM 37.4 °F 28.4 °F 70% 30.47 in 10.0 mi Calm Calm - N/A   Clear
7:30 AM 39.2 °F 30.2 °F 70% 30.48 in 10.0 mi Calm Calm - N/A   Clear
7:48 AM 41.0 °F 30.2 °F 65% 30.49 in 10.0 mi Calm Calm - N/A   Clear
8:06 AM 42.8 °F 30.2 °F 61% 30.49 in 10.0 mi Calm Calm - N/A   Clear
8:30 AM 44.6 °F 32.0 °F 61% 30.49 in 10.0 mi Calm Calm - N/A   Clear
8:48 AM 46.4 °F 32.0 °F 57% 30.49 in 10.0 mi Calm Calm - N/A   Clear
9:06 AM 48.2 °F 32.0 °F 54% 30.49 in 10.0 mi Calm Calm - N/A   Clear
9:30 AM 51.8 °F 32.0 °F 47% 30.48 in 10.0 mi Calm Calm - N/A   Clear
9:48 AM 53.6 °F 33.8 °F 47% 30.48 in 10.0 mi Calm Calm - N/A   Clear
10:06 AM 57.2 °F 32.0 °F 38% 30.47 in 10.0 mi Calm Calm - N/A   Clear
10:30 AM 59.0 °F 32.0 °F 36% 30.47 in 10.0 mi Calm Calm - N/A   Clear
10:48 AM 62.6 °F 32.0 °F 32% 30.46 in 10.0 mi Calm Calm - N/A   Clear
11:06 AM 68.0 °F 32.0 °F 26% 30.45 in 10.0 mi Calm Calm - N/A   Clear
11:30 AM 69.8 °F 32.0 °F 25% 30.44 in 10.0 mi Calm Calm - N/A   Clear
11:48 AM 71.6 °F 32.0 °F 23% 30.42 in 10.0 mi Calm Calm - N/A   Clear
12:06 PM 73.4 °F 30.2 °F 20% 30.41 in 10.0 mi West 3.5 mph - N/A   Clear
12:30 PM 77.0 °F 30.2 °F 18% 30.40 in 10.0 mi Calm Calm - N/A   Clear
12:48 PM 78.8 °F 30.2 °F 17% 30.39 in 10.0 mi Calm Calm - N/A   Clear
1:06 PM 80.6 °F 30.2 °F 16% 30.38 in 10.0 mi Calm Calm - N/A   Clear
1:30 PM 82.4 °F 28.4 °F 14% 30.37 in 10.0 mi SSW 5.8 mph - N/A   Clear
1:48 PM 84.2 °F 28.4 °F 13% 30.36 in 10.0 mi WSW 3.5 mph - N/A   Clear
2:06 PM 86.0 °F 28.4 °F 12% 30.35 in 10.0 mi Calm Calm - N/A   Clear
2:30 PM 86.0 °F 28.4 °F 12% 30.34 in 10.0 mi North 4.6 mph - N/A   Clear
2:48 PM 87.8 °F 28.4 °F 12% 30.32 in 10.0 mi Calm Calm - N/A   Clear
3:06 PM 87.8 °F 26.6 °F 11% 30.32 in 10.0 mi ENE 8.1 mph - N/A   Clear
3:30 PM 87.8 °F 26.6 °F 11% 30.31 in 10.0 mi North 3.5 mph - N/A   Clear
3:48 PM 87.8 °F 28.4 °F 12% 30.30 in 10.0 mi SW 3.5 mph - N/A   Clear
4:06 PM 87.8 °F 28.4 °F 12% 30.29 in 10.0 mi NNW 4.6 mph - N/A   Clear
4:30 PM 87.8 °F 28.4 °F 12% 30.29 in 10.0 mi North 8.1 mph - N/A   Clear
4:48 PM 87.8 °F 30.2 °F 13% 30.29 in 10.0 mi NNW 9.2 mph - N/A   Clear
5:06 PM 87.8 °F 30.2 °F 13% 30.29 in 10.0 mi NW 4.6 mph - N/A   Clear
5:30 PM 82.4 °F 28.4 °F 14% 30.29 in 10.0 mi NNW 6.9 mph - N/A   Clear
5:48 PM 82.4 °F 30.2 °F 15% 30.29 in 10.0 mi NW 8.1 mph - N/A   Clear
6:06 PM 80.6 °F 30.2 °F 16% 30.29 in 10.0 mi NW 8.1 mph - N/A   Clear
6:31 PM 78.8 °F 28.4 °F 16% 30.31 in 10.0 mi NW 11.5 mph 17.3 mph N/A   Clear
6:48 PM 78.8 °F 28.4 °F 16% 30.31 in 10.0 mi NW 12.7 mph 18.4 mph N/A   Clear
7:11 PM 78.8 °F 30.2 °F 17% 30.32 in 10.0 mi NNW 10.4 mph 17.3 mph N/A   Clear
7:29 PM 75.2 °F 28.4 °F 18% 30.33 in 10.0 mi North 6.9 mph - N/A   Clear
8:06 PM 73.4 °F 30.2 °F 20% 30.34 in 10.0 mi Calm Calm - N/A   Clear
8:30 PM 73.4 °F 35.6 °F 25% 30.35 in 10.0 mi NE 3.5 mph - N/A   Scattered Clouds
8:48 PM 69.8 °F 37.4 °F 31% 30.36 in 10.0 mi SE 3.5 mph - N/A   Scattered Clouds
9:06 PM 69.8 °F 42.8 °F 38% 30.36 in 10.0 mi East 9.2 mph - N/A   Clear
9:30 PM 68.0 °F 41.0 °F 37% 30.37 in 10.0 mi East 9.2 mph - N/A   Clear
9:48 PM 68.0 °F 41.0 °F 37% 30.37 in 10.0 mi ESE 8.1 mph - N/A   Clear
10:06 PM 68.0 °F 42.8 °F 40% 30.38 in 10.0 mi ESE 5.8 mph - N/A   Clear
10:30 PM 64.4 °F 42.8 °F 45% 30.39 in 10.0 mi SSW 3.5 mph - N/A   Clear
10:48 PM 62.6 °F 41.0 °F 45% 30.39 in 10.0 mi North 4.6 mph - N/A   Clear
11:06 PM 60.8 °F 41.0 °F 48% 30.39 in 10.0 mi ENE 4.6 mph - N/A   Clear
11:30 PM 60.8 °F 41.0 °F 48% 30.40 in 10.0 mi Calm Calm - N/A   Clear
11:48 PM 60.8 °F 41.0 °F 48% 30.40 in 10.0 mi Calm Calm - N/A   Clear